Location: Wellington Springs
(38.7532°N, 119.1924°W)
Time: 20:03:22
(UTC+00:00)

Daily predictions for brighter satellites

Satellite Brightness Start Highest point End
(mag) Time Altitude Azimuth Time Altitude Azimuth Time Altitude Azimuth
Cosmos 2227 Rocket 4.4 12:10:12 13° N 12:10:12 13° N 12:10:49 10° N
CENTAUR R/B 4.3 12:12:49 17° NNW 12:18:33 38° NE 12:26:36 10° ESE
USA 234 4.2 12:13:01 10° ENE 12:19:14 44° SE 12:25:25 10° SSW
SL-16 R/B 2.0 12:28:21 82° WNW 12:28:30 83° WSW 12:34:09 10° SSE
SL-8 R/B 3.7 12:32:33 77° ESE 12:32:33 77° ESE 12:37:02 10° ESE
ADEOS 3.7 12:27:07 10° NNE 12:32:21 74° ESE 12:37:34 10° S
Cosmos 1745 Rocket 3.9 12:29:35 10° S 12:35:50 88° W 12:42:11 10° N
Cosmos 2297 Rocket 4.5 12:44:48 10° N 12:44:48 10° N 12:44:49 10° N
USA 238 DEB 4.3 12:36:35 21° NNW 12:41:35 59° NE 12:49:00 10° SE
USA 238 4.3 12:36:39 21° NNW 12:41:41 58° NE 12:49:05 10° SE
Cosmos 2151 3.3 12:38:22 10° S 12:42:30 63° E 12:46:40 10° NNE
SL-08 ROCKET BODY 4.3 12:39:33 10° SSW 12:45:30 60° W 12:51:35 10° N
ERS-2 2.4 12:42:15 10° SSE 12:45:29 64° ESE 12:45:29 64° ESE
SL-4 R/B 2.8 12:49:34 38° NNE 12:49:34 38° NNE 12:52:13 10° NE
Lacrosse 4 Rocket 4.2 12:47:13 10° NNE 12:49:02 12° NE 12:50:51 10° ENE
OAO 3 Rocket 3.4 12:48:32 50° SSW 12:49:02 53° S 12:53:39 10° ESE
BREEZE-M DEB (TANK) 4.3 12:47:37 15° S 12:49:31 27° ESE 12:54:17 10° ENE
Cosmos 1689 Rocket 4.4 12:50:18 10° SE 12:52:39 23° ENE 12:54:10 16° NNE
Cosmos 1777 Rocket 3.8 12:47:53 10° SSW 12:53:04 86° WNW 12:58:18 10° NNE
METEOR-M 4.0 12:51:11 10° N 12:56:31 76° WNW 13:01:50 10° SSW
SJ 16-02 3.1 12:53:03 10° SSE 12:57:00 33° E 13:00:58 10° NE
Lacrosse 5 3.8 12:53:08 10° S 12:57:28 29° ESE 13:01:49 10° ENE
COSMO-SKYMED 1 3.3 12:53:32 10° SSE 12:57:45 54° ENE 13:02:00 10° N
CZ-4B R/B 2.6 12:55:35 10° S 12:57:22 30° S 12:57:22 30° S
Cosmos 1606 2.8 12:57:12 26° N 12:59:13 72° E 13:03:00 10° SSE
Cosmos 1709 Rocket 4.1 12:55:29 10° S 13:01:48 84° E 13:08:14 10° N
Meteor 1-31 Rocket 2.6 12:58:26 10° N 13:02:16 67° WNW 13:06:03 10° SSW
BREEZE-M DEB (TANK) 2.6 13:02:39 56° NNE 13:02:39 56° NNE 13:05:26 10° ENE
Cosmos 389 Rocket 2.3 13:02:33 75° SW 13:02:33 75° SW 13:05:49 10° S
Cosmos 2263 Rocket 2.1 13:00:19 10° SSW 13:05:57 88° WNW 13:11:41 10° NNE
CZ-4B R/B 3.2 13:06:47 10° NNE 13:11:20 80° ESE 13:15:45 10° S
PSLV R/B 4.3 13:13:15 10° SSE 13:17:22 66° ENE 13:21:30 10° N
ALOS 2.9 13:14:19 10° N 13:18:29 33° WNW 13:22:37 10° SW
Cosmos 1441 Rocket 3.1 13:14:55 10° SSW 13:18:42 60° W 13:22:27 10° N
SKYMED 3 4.4 13:17:26 10° S 13:21:47 80° W 13:26:08 10° NNW
Cosmos 1603 3.9 13:17:15 10° NNW 13:22:52 72° ENE 13:28:28 10° SSE
Atlas Centaur 2 4.2 13:22:58 10° SSW 13:26:33 17° SSE 13:29:41 10° ESE
MOS 1 Rocket 4.3 13:26:56 10° SSE 13:31:19 48° ENE 13:36:01 10° N
Cosmos 1184 Rocket 2.7 13:29:32 10° S 13:32:48 88° W 13:36:05 10° N
ATLAS 3B R/B 4.3 13:27:26 10° NNW 13:33:20 29° NE 13:39:25 10° ESE
Cosmos 1943 3.3 13:29:38 10° NNW 13:35:22 80° ENE 13:41:04 10° SSE
ASTRO F (AKARI) 4.1 13:32:54 10° NNE 13:35:59 89° ESE 13:39:05 10° SSW
SJ-12 4.4 13:34:58 10° N 13:38:43 36° WNW 13:42:25 10° SW
SWAS 4.4 13:40:04 12° NNW 13:43:56 63° WSW 13:48:07 10° SSE
NOSS 3-4 (A) 3.3 13:38:58 10° SW 13:44:46 64° NW 13:50:56 10° NNE
NOSS 3-4 (C) 3.3 13:39:05 10° SW 13:44:54 65° NW 13:51:04 10° NNE
Envisat 3.5 13:40:24 10° NNE 13:45:28 65° E 13:50:30 10° S
SKYMED 2 4.0 13:41:45 10° S 13:45:50 41° W 13:49:58 10° NNW
NOSS 3-2 (C) 4.2 13:39:33 10° NW 13:47:23 81° WSW 13:56:05 10° SSE
Meteor 1-4 Rocket 2.4 13:44:52 10° N 13:48:21 87° E 13:51:47 10° S
Cosmos 2084 3.6 13:46:42 10° NNW 13:51:13 83° NE 13:55:43 10° SE
USA 276 3.5 13:50:36 17° W 13:52:08 24° SW 13:54:44 10° SSE
Cosmos 1515 Rocket 4.0 13:49:00 10° N 13:53:26 65° E 13:57:51 10° SSE
H-2A R/B 2.6 13:50:37 10° NNE 13:54:30 71° ESE 13:58:17 10° S
ERBS 3.9 13:55:24 15° WNW 13:56:28 18° NW 13:58:49 10° N
Okean O Rocket 3.1 13:53:14 10° NNE 13:57:27 41° E 14:01:39 10° S
Delta 2 Rocket 4.3 13:53:30 12° W 13:57:28 40° SSW 14:01:20 10° SE
ATLAS CENTAUR R/B 4.0 13:57:08 10° NNE 13:57:52 10° NE 13:58:36 10° NE
H-2A R/B 2.9 13:54:56 10° N 13:58:44 50° WNW 14:02:31 10° SSW
USA 234 3.5 13:55:57 10° NE 14:02:15 52° NW 14:08:33 10° WSW
ATLAS 2AS CENTAUR R/B 3.1 13:56:35 10° SW 14:04:28 67° NW 14:12:20 10° NNE
Cosmos 1933 4.2 14:04:13 10° NNW 14:07:45 29° W 14:11:18 10° SSW
Meteor 1-26 Rocket 4.4 14:03:10 10° NNW 14:08:51 55° W 14:14:18 10° S
PAYLOAD B 4.3 14:04:05 10° NNE 14:09:37 87° E 14:15:07 10° SSW
CENTAUR R/B 3.4 14:01:34 10° NW 14:09:49 63° WSW 14:18:32 10° SSE
Cosmos 1633 3.8 14:08:15 10° WSW 14:10:51 19° WNW 14:13:28 10° NNW
Cosmos 923 Rocket 4.0 14:06:01 10° NNW 14:11:19 84° WSW 14:16:37 10° SSE
Cosmos 1500 Rocket 3.5 14:10:07 10° S 14:14:25 88° W 14:18:46 10° N
SMAP 3.3 14:09:51 10° NNE 14:14:32 75° ESE 14:19:10 10° S
MOS 1-B 4.4 14:08:58 10° NNE 14:14:49 79° WNW 14:20:36 10° SSW
YAOGAN 6 2.6 14:12:17 10° N 14:15:41 51° WNW 14:19:04 10° SSW
ASTRO E2 4.3 14:12:54 10° WSW 14:16:18 27° S 14:19:42 10° SE
CZ-4C R/B 1.9 14:11:52 10° SW 14:16:37 82° WNW 14:22:16 10° NNE
RESURS DK-1 2.6 14:13:15 10° SSW 14:17:22 76° ESE 14:21:33 10° NNE
CZ-4B DEB 4.2 14:13:20 10° N 14:18:44 63° WNW 14:24:06 10° SSW
PSLV R/B 4.4 14:15:59 10° N 14:19:34 35° WNW 14:23:03 10° SW
Cosmos 1151 Rocket 3.9 14:17:12 10° NNW 14:20:49 27° W 14:24:25 10° SSW
Cosmos 1844 4.2 14:16:56 10° S 14:22:24 65° ESE 14:27:55 10° NNE
